2021-079C (49124 NORAD) Tracking and Keplerian Element Data

This shows tracking and keplerian element data for the satellite.

Feedback or suggestion? Click here.




ElementValue
Catalog49124
Name2021-079C
Epoch Orbit164
Epoch Day261.55933431
Epoch Year2021
RAAN332.9557
Inclination98.3378
Eccentricity0.0176586
Argument of Perigee251.6969
Mean Anonmoly106.3736
Mean Motion14.71430688
Decay Rate0.00345419
L11 49124U 21079C 21261.55933431 .00345419 00000-0 41903-1 0 9998
L22 49124 98.3378 332.9557 0176586 251.6969 106.3736 14.71430688 1644

Live tracking and technical data element details for 2021-079C (NORAD 49124). 2021-079C can be tracked NOW for your location showing map with azimuth and elevation plus other details from your city location.

Track the satellite on the map from your city or location and see movement details for azimuth, elevation, latitude, longitude, range, height, and movement on the map or in text.







IsCatalogInMostPopularTable: catalog: 49124, numindb: 4
Update: records affected: 1



GetName: 49124 2021-079C

Hit Count: updated at: Fri, 24 Sep 2021 18:23:33 GMT